This demonstration page uses our WeatherBlox Daily Observations layout. Learn more.

Left ArrowRight Arrow

Hourly Observations for September 2, 2018

Temp ( °F °C ) Dew Point ( °F °C ) Humidity (%) Winds ( mph kmh ) Pressure ( in mb ) Visibility ( mi km ) Precip ( " mm )
12:14 am 00:14 Mostly Clear with Nearby Thunderstorms 70 21 64 18 83 83 S 14 22 29.85 1011 10 16 0.00 0.00
12:51 am 00:51 Mostly Clear with Thunderstorms 70 21 64 18 83 83 S 16 26 29.88 1012 10 16 0.00 0.03
12:53 am 00:53 Partly Cloudy with Thunderstorms 68 20 65 18.3 90 90 S 15 24 29.88 1012 9 14 0.01 0.25
1:11 am 01:11 Cloudy with Nearby Thunderstorms 64 18 63 17 94 94 S 16 26 29.88 1012 5 8 0.00 0.00
1:28 am 01:28 Cloudy with Thunderstorms 64 18 63 17 94 94 S 16 26 29.88 1012 10 16 0.00 0.00
1:45 am 01:45 Cloudy with Light Rain 65 18.3 63 17.2 93 93 S 18 30 29.88 1012 10 16 0.07 1.78
1:53 am 01:53 Cloudy with Light Rain 65 18.3 63 17.2 93 93 S 10 17 29.89 1012 10 16 0.08 2.03
2:15 am 02:15 Cloudy with Thunderstorms 66 18.9 64 17.8 93 93 S 13 20 29.88 1012 10 16 0.00 0.03
2:41 am 02:41 Cloudy with Light Rain 65 18.3 63 17.2 93 93 S 14 22 29.88 1012 10 16 0.01 0.25
2:48 am 02:48 Cloudy with Thunderstorms 64 18 63 17 94 94 SSW 15 24 29.88 1012 10 16 0.00 0.00
2:53 am 02:53 Cloudy with Thunderstorms 64 17.8 62 16.7 93 93 SSW 20 31 29.91 1013 8 13 0.04 1.02
3:30 am 03:30 Cloudy with Nearby Thunderstorms 64 18 63 17 94 94 S 16 26 29.88 1012 10 16 0.00 0.00
3:53 am 03:53 Mostly Cloudy with Light Rain 66 18.9 61 16.1 84 84 SSW 8 13 29.88 1012 10 16 0.07 1.78
4:53 am 04:53 Clear 65 18.3 60 15.6 84 84 S 9 15 29.88 1012 10 16 0.00 0.03
5:53 am 05:53 Partly Cloudy 67 19.4 60 15.6 79 79 SSE 9 15 29.88 1012 10 16 0.00 0.00
6:53 am 06:53 Mostly Cloudy with Light Rain 67 19.4 61 16.1 81 81 SE 8 13 29.88 1012 10 16 0.01 0.25
7:53 am 07:53 Mostly Cloudy 67 19.4 63 17.2 87 87 S 3 6 29.90 1013 10 16 0.00 0.03
8:53 am 08:53 Sunny 68 20 65 18.3 90 90 SSW 6 9 29.92 1013 10 16 0.00 0.00
9:53 am 09:53 Mostly Cloudy 71 21.7 67 19.4 87 87 SSW 15 24 29.94 1014 10 16 0.00 0.03
10:53 am 10:53 Mostly Cloudy 70 21.1 67 19.4 90 90 S 13 20 29.94 1014 10 16 0.00 0.03
11:53 am 11:53 Cloudy 73 22.8 66 18.9 79 79 SSW 6 9 29.95 1014 10 16 0.00 0.03
12:53 pm 12:53 Mostly Cloudy 73 22.8 67 19.4 81 81 NE 12 19 29.97 1015 10 16 0.00 0.00
1:53 pm 13:53 Mostly Cloudy 75 23.9 67 19.4 76 76 E 7 11 29.96 1015 10 16 0.00 0.00
2:53 pm 14:53 Sunny 78 25.6 68 20 71 71 VRB 3 6 29.97 1015 10 16 0.00 0.00
3:14 pm 15:14 Mostly Cloudy 79 26 68 20 70 70 ESE 3 6 29.91 1013 10 16 0.00 0.00
3:35 pm 15:35 Mostly Cloudy 78 25.6 67 19.4 69 69 SSW 5 7 29.91 1013 10 16 0.00 0.00
3:53 pm 15:53 Mostly Cloudy 78 25.6 67 19.4 69 69 Calm 29.95 1014 10 16 0.00 0.00
4:53 pm 16:53 Mostly Cloudy 78 25.6 68 20 71 71 Calm 29.95 1014 10 16 0.00 0.00
5:53 pm 17:53 Mostly Cloudy with Light Rain 76 24.4 70 21.1 82 82 ENE 6 9 29.93 1014 10 16 0.00 0.03
6:53 pm 18:53 Mostly Cloudy 76 24.4 69 20.6 79 79 ENE 7 11 29.94 1014 10 16 0.00 0.03
7:53 pm 19:53 Mostly Cloudy 74 23.3 70 21.1 88 88 ENE 7 11 29.96 1014 10 16 0.00 0.00
8:53 pm 20:53 Clear 73 22.8 69 20.6 87 87 SE 8 13 29.97 1015 10 16 0.00 0.00
9:33 pm 21:33 Partly Cloudy 70 21.1 67 19.4 90 90 SSE 13 20 29.97 1015 10 16 0.00 0.00
9:53 pm 21:53 Mostly Cloudy 69 20.6 67 19.4 93 93 SSE 9 15 30.02 1017 10 16 0.00 0.00
10:01 pm 22:01 Mostly Cloudy 69 20.6 67 19.4 93 93 SE 10 17 30.00 1016 10 16 0.00 0.00
10:11 pm 22:11 Cloudy 69 20.6 67 19.4 93 93 SE 13 20 30.00 1016 10 16 0.00 0.00
10:41 pm 22:41 Cloudy with Light Rain 67 19.4 66 18.9 97 97 ESE 8 13 30.00 1016 9 14 0.04 1.02
10:49 pm 22:49 Cloudy with Light Rain 66 19 66 19 100 100 SE 8 13 30.00 1016 10 16 0.05 1.27
10:53 pm 22:53 Cloudy with Light Rain 67 19.4 66 18.9 97 97 SE 6 9 30.04 1017 10 16 0.05 1.27
11:53 pm 23:53 Mostly Cloudy 67 19.4 65 18.3 93 93 E 7 11 30.02 1017 10 16 0.01 0.25

Powered by AerisWeather